Simultaneous Nadir Overpasses (SNOs) Predictions

Prediction of SNOs between GOES-15 and METOP-C Satellite Orbit:

Table of predicted SNOs for the next 14.0 days since TLE Epoch: 11/9/2024
Index Date Time (GOES-15) GOES-15 Lat,Lon METOP-C Lat,Lon Distance(km) Time Diff (sec)
1 11/10/2024 05:34:11 -0.23, 61.46 0.34, 58.97 284.81 80
2 11/11/2024 05:16:11 -0.24, 61.47 -0.78, 63.96 283.66 80
3 11/12/2024 17:35:09 0.23, 61.61 -0.27, 59.38 253.60 80
4 11/13/2024 17:11:48 0.23, 61.63 0.85, 64.38 313.74 80
5 11/15/2024 05:30:38 -0.23, 61.55 0.17, 59.83 196.03 80
6 11/16/2024 05:12:37 -0.23, 61.57 -0.97, 64.83 371.94 80
7 11/17/2024 17:31:34 0.22, 61.70 -0.09, 60.25 165.22 80
8 11/18/2024 17:08:13 0.22, 61.73 1.00, 65.26 401.60 80
9 11/20/2024 05:27:02 -0.20, 61.67 -0.01, 60.70 109.66 80
10 11/21/2024 05:09:01 -0.20, 61.69 -1.11, 65.71 458.20 80
11 11/22/2024 17:27:57 0.19, 61.82 0.04, 61.14 77.77 80
